Flag for U.S.A. Weather past 2 weeks in Amarillo, Texas, U.S.A.

Now
59 °F

Mostly cloudy.


Feels Like: 55 °F
Forecast: 58 / 74 °F
Wind: 20 mph from Southeast

Location: Amarillo International Airport

Current Time: May 22, 2015 at 9:53:16 PM

Latest Report: May 22, 2015 at 8:53 PM


Visibility: 10 mi

Pressure: 29.97 "Hg

Humidity: 93%

Dew point: 57 °F

Location of AmarilloLocation

Historic Weather in Amarillo — Graph

°F

Amarillo temperature yesterday

Maximum temperature yesterday: 55 °F (at 2:53 PM)
Minimum temperature yesterday: 45 °F (at 3:53 AM)
Average temperature yesterday: 49 °F

Past Weeks' High & Low Weather Summary

 TemperatureHumidityPressure
High80 °F (May 14, 2:53 PM)100% (May 8, 4:01 AM)30.29 "Hg (May 8, 4:01 AM)
Low40 °F (May 11, 5:53 AM)19% (May 9, 7:53 PM)29.59 "Hg (May 16, 3:53 PM)
Average58 °F73%29.95 "Hg
* Reported May 7 7:53 PM — May 22 7:53 PM, Amarillo, Weather by CustomWeather, © 2015

Note: Actual official high and low records may vary slightly from our data, if they occured in-between our weather recording intervals... More about our weather records

Advertising

Amarillo weather history for previous 24 hours

 ConditionsComfort  
Time TempWeatherWind HumidityBarometerVisibility
7:53 PM
Fri, May 22
61 °FOvercast.21 mph83%29.96 "Hg10 mi
6:53 PM63 °FPartly sunny.20 mph81%29.96 "Hg10 mi
5:53 PM65 °FMore clouds than sun.17 mph76%29.97 "Hg10 mi
4:53 PM64 °FBroken clouds.13 mph75%29.99 "Hg10 mi
3:53 PM63 °FMore clouds than sun.16 mph73%30.02 "Hg10 mi
2:53 PM60 °FMore clouds than sun.16 mph80%30.03 "Hg10 mi
1:53 PM58 °FMostly cloudy.12 mph87%30.06 "Hg10 mi
12:53 PM57 °FMostly cloudy.12 mph87%30.07 "Hg9 mi
11:53 AM55 °FLow clouds.12 mph90%30.08 "Hg10 mi
10:53 AM53 °FLow clouds.12 mph93%30.09 "Hg9 mi
9:53 AM53 °FLow clouds.13 mph93%30.09 "Hg10 mi
9:02 AM52 °FFog.12 mph93%30.15 "Hg3 mi
8:58 AM51 °FFog.10 mph100%30.15 "Hg2 mi
7:53 AM50 °FFog.8 mph96%30.10 "Hg1 mi
6:53 AM50 °FLow clouds.7 mph96%30.08 "Hg10 mi
5:53 AM50 °FLow clouds.7 mph96%30.07 "Hg10 mi
4:53 AM50 °FLight rain. Mostly cloudy.9 mph96%30.06 "Hg10 mi
3:53 AM49 °FPassing clouds.14 mph97%30.06 "Hg10 mi
2:53 AM50 °FRain. Fog.5 mph96%30.11 "Hg6 mi
2:02 AM50 °FThunderstorms. Fog.7 mph96%30.22 "Hg2 mi
1:53 AM50 °FStrong thunderstorms. Fog.13 mph96%30.17 "Hg1 mi
1:02 AM50 °FFog.7 mph96%30.17 "Hg2 mi
12:53 AM50 °FFog.7 mph96%30.11 "Hg3 mi
11:53 PM
Thu, May 21
50 °FLow clouds.6 mph93%30.14 "Hg10 mi
10:53 PM50 °FLight rain. Mostly cloudy.10 mph93%30.13 "Hg9 mi
9:53 PM50 °FLight rain. Fog.15 mph93%30.13 "Hg5 mi
Weather by CustomWeather, © 2015

See weather overviewHow to use our weather pages